DW9527 Weather Reports


Display with metric or nautical units.
time (UTC)temp
F
wind
direction
speed
MPH
gust
MPH
rain 1hr
in
rain 24hr
in
rain mn
in
humidity
%
barometer
mb
20260510142205 52 64 7.0 15.0 0.01 0.17 0.17 83 1021.7
20260510141706 52 54 4.0 14.0 0.02 0.17 0.17 84 1021.9
20260510141204 52 57 4.0 9.0 0.04 0.17 0.17 84 1022.0
20260510140705 52 43 3.0 9.0 0.05 0.17 0.17 85 1021.9
20260510140205 52 45 5.0 9.0 0.06 0.17 0.17 85 1021.9
20260510135705 52 35 4.0 9.0 0.08 0.17 0.17 85 1021.9
20260510135205 52 49 4.0 9.0 0.10 0.17 0.17 85 1021.5
20260510134705 52 58 4.0 9.0 0.12 0.17 0.17 85 1021.5
20260510134205 52 70 3.0 9.0 0.14 0.17 0.17 84 1021.5
20260510133705 52 64 2.0 6.0 0.16 0.17 0.17 84 1021.6
20260510132705 52 62 3.0 12.0 0.14 0.16 0.16 83 1021.6
20260510132205 52 80 6.0 12.0 0.16 0.16 0.16 83 1021.4
20260510131705 52 39 5.0 8.0 0.14 0.14 0.14 83 1021.6
20260510131205 53 38 3.0 7.0 0.13 0.13 0.13 82 1021.6
20260510130705 53 9 3.0 7.0 0.12 0.12 0.12 81 1021.6
20260510130204 54 355 1.0 6.0 0.11 0.11 0.11 80 1021.6
20260510125705 54 44 2.0 6.0 0.08 0.08 0.08 77 1021.3
20260510125205 55 48 1.0 7.0 0.07 0.07 0.07 76 1021.2
20260510124704 55 48 2.0 9.0 0.05 0.05 0.05 73 1021.0
20260510123705 56 14 2.0 10.0 0.01 0.01 0.01 71 1021.0
20260510123205 56 70 4.0 10.0 0.01 0.01 0.01 68 1020.4
20260510122704 57 90 2.0 7.0 0.01 0.01 0.01 66 1020.1
20260510121704 57 66 1.0 9.0 0.00 0.00 0.00 65 1020.0
20260510121204 58 32 3.0 12.0 0.00 0.00 0.00 63 1019.8
20260510120705 58 49 5.0 15.0 0.00 0.00 0.00 62 1019.4
20260510120205 58 33 5.0 15.0 0.00 0.00 0.00 62 1019.0
20260510115705 58 47 7.0 14.0 0.00 0.00 0.00 61 1018.7
20260510115205 58 60 5.0 12.0 0.00 0.00 0.00 61 1018.6
20260510114704 58 21 4.0 16.0 0.00 0.00 0.00 61 1018.3
20260510114204 58 76 6.0 16.0 0.00 0.00 0.00 62 1018.0
20260510113705 58 44 7.0 16.0 0.00 0.00 0.00 62 1017.6
20260510112705 58 61 6.0 17.0 0.00 0.00 0.00 63 1017.3
20260510112205 58 21 8.0 17.0 0.00 0.00 0.00 63 1017.1
20260510111705 58 34 7.0 15.0 0.00 0.00 0.00 63 1016.9
20260510111205 58 39 5.0 20.0 0.00 0.00 0.00 63 1016.9
20260510110705 58 23 7.0 20.0 0.00 0.00 0.00 63 1016.8
20260510110205 58 32 11.0 20.0 0.00 0.00 0.00 62 1016.8
20260510105705 58 33 9.0 18.0 0.00 0.00 0.00 62 1016.8
20260510105204 59 15 7.0 16.0 0.00 0.00 0.00 62 1016.5
20260510104704 59 33 7.0 16.0 0.00 0.00 0.00 61 1016.6
20260510104205 59 42 7.0 15.0 0.00 0.00 0.00 61 1016.7
20260510103705 59 49 6.0 15.0 0.00 0.00 0.00 60 1016.7
20260510103205 60 15 7.0 20.0 0.00 0.00 0.00 59 1016.6
20260510102204 60 23 9.0 18.0 0.00 0.00 0.00 59 1016.2
20260510101704 60 31 9.0 22.0 0.00 0.00 0.00 60 1016.1
20260510101205 60 33 9.0 22.0 0.00 0.00 0.00 60 1016.2
20260510100836 60 24 9.0 22.0 0.00 0.00 0.00 60 1016.0
20260510100207 59 28 9.0 17.0 0.00 0.00 0.00 60 1016.0
20260510095741 59 42 8.0 17.0 0.00 0.00 0.00 61 1016.0
20260510095205 59 34 7.0 15.0 0.00 0.00 0.00 61 1016.0
20260510094705 59 16 7.0 15.0 0.00 0.00 0.00 62 1015.9
20260510094204 59 31 6.0 14.0 0.00 0.00 0.00 62 1015.7
20260510093704 59 36 6.0 16.0 0.00 0.00 0.00 62 1015.8
20260510093204 59 26 8.0 16.0 0.00 0.00 0.00 62 1015.5
20260510092205 59 43 6.0 15.0 0.00 0.00 0.00 62 1015.1
20260510091704 59 37 6.0 15.0 0.00 0.00 0.00 62 1015.2
20260510091205 59 21 8.0 15.0 0.00 0.00 0.00 62 1015.3
20260510090704 59 26 7.0 15.0 0.00 0.00 0.00 62 1015.3
20260510090204 59 47 7.0 18.0 0.00 0.00 0.00 62 1015.3
20260510085705 59 20 9.0 18.0 0.00 0.00 0.00 62 1015.3
20260510084205 59 26 5.0 15.0 0.00 0.00 0.00 63 1015.3
20260510083705 60 25 6.0 15.0 0.00 0.00 0.00 63 1015.3
20260510083204 60 43 6.0 15.0 0.00 0.00 0.00 63 1015.2
20260510082205 60 50 6.0 10.0 0.00 0.00 0.00 63 1015.0
20260510081205 60 24 7.0 12.0 0.00 0.00 0.00 63 1015.2
20260510080705 60 33 5.0 12.0 0.00 0.00 0.00 64 1015.1
20260510080205 60 36 6.0 12.0 0.00 0.00 0.00 63 1015.0
20260510075704 61 30 5.0 12.0 0.00 0.00 0.00 63 1015.0
20260510075204 61 28 4.0 9.0 0.00 0.00 0.00 63 1014.8
20260510074705 61 37 3.0 12.0 0.00 0.00 0.00 62 1014.8
20260510074205 61 31 3.0 12.0 0.00 0.00 0.00 62 1014.7
20260510073205 62 33 5.0 8.0 0.00 0.00 0.00 61 1014.5
20260510072704 62 20 4.0 9.0 0.00 0.00 0.00 60 1014.6
20260510072204 62 40 3.0 9.0 0.00 0.00 0.00 60 1014.7
20260510071704 62 22 5.0 9.0 0.00 0.00 0.00 59 1014.6
20260510070704 63 39 3.0 7.0 0.00 0.00 0.00 59 1014.6
20260510065204 63 79 2.0 6.0 0.00 0.00 0.00 59 1014.4
20260510064704 63 92 2.0 6.0 0.00 0.00 0.00 59 1014.3
20260510064205 63 103 2.0 7.0 0.00 0.00 0.00 59 1014.3
20260510063705 63 66 3.0 8.0 0.00 0.00 0.00 59 1014.2
20260510063204 63 45 2.0 8.0 0.00 0.00 0.00 60 1014.1
20260510062704 63 33 3.0 8.0 0.00 0.00 0.00 59 1014.0
20260510061704 64 30 3.0 7.0 0.00 0.00 0.00 58 1014.1
20260510061204 64 25 3.0 10.0 0.00 0.00 0.00 58 1014.1
20260510060704 64 28 3.0 10.0 0.00 0.00 0.00 58 1014.0
20260510060205 64 44 3.0 6.0 0.00 0.00 0.00 58 1013.7
20260510055705 64 48 2.0 6.0 0.00 0.00 0.00 58 1013.5
20260510055205 65 52 2.0 6.0 0.00 0.00 0.00 58 1013.6
20260510054705 65 46 1.0 6.0 0.00 0.00 0.00 58 1013.6
20260510054205 65 40 3.0 7.0 0.00 0.00 0.00 57 1013.5
20260510053704 65 40 3.0 10.0 0.00 0.00 0.00 57 1013.3
20260510053204 65 67 3.0 10.0 0.00 0.00 0.00 56 1013.2
20260510052704 66 35 5.0 10.0 0.00 0.00 0.00 55 1013.1
20260510051705 66 24 4.0 9.0 0.00 0.00 0.00 55 1013.0
20260510051204 66 21 5.0 9.0 0.00 0.00 0.00 55 1013.1
20260510050705 66 48 3.0 8.0 0.00 0.00 0.00 54 1013.0
20260510050204 66 102 3.0 8.0 0.00 0.00 0.00 54 1012.8
20260510045704 66 61 4.0 8.0 0.00 0.00 0.00 54 1012.9
20260510045204 66 28 3.0 7.0 0.00 0.00 0.00 54 1012.9
20260510044705 66 35 3.0 6.0 0.00 0.00 0.00 54 1012.9
20260510044204 66 36 3.0 6.0 0.00 0.00 0.00 54 1012.7
20260510043704 66 33 2.0 7.0 0.00 0.00 0.00 54 1012.6
20260510043204 66 36 2.0 7.0 0.00 0.00 0.00 54 1012.7
20260510042705 67 71 1.0 3.0 0.00 0.00 0.00 54 1012.7
20260510041704 67 78 1.0 3.0 0.00 0.00 0.00 52 1012.9
20260510041205 67 77 1.0 3.0 0.00 0.00 0.00 52 1012.8
20260510040704 67 77 1.0 3.0 0.00 0.00 0.00 52 1012.9
20260510040204 67 77 1.0 7.0 0.00 0.00 0.00 52 1012.8
20260510035705 67 77 2.0 8.0 0.00 0.00 0.00 52 1012.7
20260510035205 67 81 3.0 8.0 0.00 0.00 0.00 52 1012.7
20260510034704 67 90 2.0 8.0 0.00 0.00 0.00 52 1012.4
20260510034205 67 96 3.0 8.0 0.00 0.00 0.00 52 1012.4
20260510033706 67 117 1.0 3.0 0.00 0.00 0.00 51 1012.5
20260510033204 67 117 1.0 2.0 0.00 0.00 0.00 51 1012.4
20260510032705 67 118 0.0 2.0 0.00 0.00 0.00 52 1012.2
20260510032205 68 118 0.0 2.0 0.00 0.00 0.00 52 1012.0
20260510031204 68 118 1.0 3.0 0.00 0.00 0.00 52 1012.1
20260510030705 68 119 1.0 6.0 0.00 0.00 0.00 52 1012.0
20260510025705 68 140 2.0 6.0 0.00 0.00 0.00 51 1011.9
20260510025205 69 148 2.0 6.0 0.00 0.00 0.00 50 1011.9
20260510024704 69 149 2.0 6.0 0.00 0.00 0.00 48 1012.0
20260510024205 69 150 3.0 12.0 0.00 0.00 0.00 48 1012.0
20260510023705 70 148 4.0 12.0 0.00 0.00 0.00 47 1011.8
20260510022705 71 146 7.0 12.0 0.00 0.00 0.00 44 1011.9
20260510022205 72 153 5.0 10.0 0.00 0.00 0.00 41 1012.0
20260510021705 71 132 1.0 7.0 0.00 0.00 0.00 42 1012.0
20260510021205 71 134 5.0 7.0 0.00 0.00 0.00 43 1011.8
20260510020705 72 9 1.0 6.0 0.00 0.00 0.00 44 1012.2
20260510015704 75 7 3.0 14.0 0.00 0.00 0.00 38 1012.4
20260510015205 76 117 1.0 14.0 0.00 0.00 0.00 33 1012.1
20260510014704 76 128 6.0 14.0 0.00 0.00 0.00 30 1011.7
20260510014205 76 350 0.0 8.0 0.00 0.00 0.00 29 1012.0
20260510013710 77 345 3.0 10.0 0.00 0.00 0.00 29 1012.3
20260510013206 77 265 5.0 10.0 0.00 0.00 0.00 29 1012.3
20260510012709 76 159 3.0 7.0 0.00 0.00 0.00 28 1012.1
20260510012212 77 129 0.0 1.0 0.00 0.00 0.00 30 1011.8
20260510011704 78 129 0.0 1.0 0.00 0.00 0.00 28 1011.5
20260510011205 78 129 0.0 2.0 0.00 0.00 0.00 26 1011.2
20260510010704 78 129 0.0 6.0 0.00 0.00 0.00 25 1010.9
20260510010204 79 130 1.0 6.0 0.00 0.00 0.00 25 1010.5
20260510005705 79 128 2.0 8.0 0.00 0.00 0.00 24 1010.2
20260510005204 79 119 1.0 8.0 0.00 0.00 0.00 23 1009.9
20260510004704 79 159 3.0 12.0 0.00 0.00 0.00 23 1009.7
20260510004204 79 135 3.0 12.0 0.00 0.00 0.00 22 1009.2
20260510003704 79 124 4.0 9.0 0.00 0.00 0.00 22 1008.9
20260510003204 80 145 3.0 10.0 0.00 0.00 0.00 22 1008.8
20260510002706 80 134 4.0 12.0 0.00 0.00 0.00 22 1008.7
20260510002205 80 150 5.0 12.0 0.00 0.00 0.00 21 1008.6
20260510001704 80 159 6.0 12.0 0.00 0.00 0.00 21 1008.5
20260510000732 81 158 6.0 14.0 0.00 0.00 0.00 20 1008.4
20260510000205 81 153 6.0 14.0 0.00 0.00 0.00 20 1008.4
20260509235705 82 151 7.0 14.0 0.00 0.00 0.00 20 1008.4
20260509235205 82 156 6.0 12.0 0.00 0.00 0.00 19 1008.4
20260509234704 83 155 5.0 14.0 0.00 0.00 0.00 18 1008.4
20260509234204 84 156 6.0 14.0 0.00 0.00 0.00 19 1008.3
20260509233704 83 160 6.0 14.0 0.00 0.00 0.00 20 1008.4
20260509233205 83 150 6.0 14.0 0.00 0.00 0.00 18 1008.5
20260509232704 83 130 6.0 14.0 0.00 0.00 0.00 17 1008.6
20260509232205 84 150 4.0 12.0 0.00 0.00 0.00 19 1008.6
20260509231704 84 152 7.0 15.0 0.00 0.00 0.00 17 1008.7
20260509230705 85 159 5.0 14.0 0.00 0.00 0.00 18 1008.7
20260509230205 84 127 6.0 14.0 0.00 0.00 0.00 17 1008.9
20260509225705 84 147 4.0 14.0 0.00 0.00 0.00 19 1008.9
20260509225205 84 159 6.0 15.0 0.00 0.00 0.00 18 1008.9
20260509224704 85 151 10.0 15.0 0.00 0.00 0.00 17 1008.9
20260509224205 85 156 7.0 14.0 0.00 0.00 0.00 17 1008.9
20260509223704 85 160 7.0 17.0 0.00 0.00 0.00 18 1008.9
20260509223205 84 154 6.0 17.0 0.00 0.00 0.00 20 1008.8
20260509222704 84 152 3.0 15.0 0.00 0.00 0.00 18 1008.8
20260509222204 85 147 4.0 10.0 0.00 0.00 0.00 18 1008.7
20260509221704 85 161 5.0 12.0 0.00 0.00 0.00 18 1008.8
20260509221205 85 172 4.0 17.0 0.00 0.00 0.00 20 1008.7
20260509220705 85 143 6.0 17.0 0.00 0.00 0.00 18 1008.7
20260509220204 85 141 5.0 15.0 0.00 0.00 0.00 19 1008.6
20260509214709 86 161 9.0 22.0 0.00 0.00 0.00 18 1008.6
20260509214204 85 138 7.0 17.0 0.00 0.00 0.00 18 1008.6
20260509212705 86 222 3.0 15.0 0.00 0.00 0.00 19 1008.7
20260509212205 85 150 5.0 15.0 0.00 0.00 0.00 18 1008.8
20260509211704 85 152 3.0 12.0 0.00 0.00 0.00 19 1008.9
20260509211205 85 150 3.0 16.0 0.00 0.00 0.00 17 1008.9
20260509210704 85 151 6.0 17.0 0.00 0.00 0.00 17 1009.1
20260509210205 85 148 7.0 18.0 0.00 0.00 0.00 18 1009.2
20260509205705 85 153 13.0 18.0 0.00 0.00 0.00 17 1009.2
20260509205204 86 159 5.0 16.0 0.00 0.00 0.00 19 1009.2
20260509204705 85 302 5.0 16.0 0.00 0.00 0.00 20 1009.3
20260509204205 86 186 7.0 14.0 0.00 0.00 0.00 19 1009.3
20260509203204 86 166 5.0 12.0 0.00 0.00 0.00 19 1009.4
20260509202705 86 128 4.0 12.0 0.00 0.00 0.00 20 1009.4
20260509202205 86 247 6.0 14.0 0.00 0.00 0.00 20 1009.5
20260509201705 86 215 7.0 14.0 0.00 0.00 0.00 18 1009.5
20260509201205 85 169 5.0 16.0 0.00 0.00 0.00 19 1009.6
20260509200705 86 202 6.0 16.0 0.00 0.00 0.00 21 1009.7
20260509200205 85 134 8.0 16.0 0.00 0.00 0.00 20 1009.8
20260509195705 86 242 7.0 15.0 0.00 0.00 0.00 20 1009.7
20260509194704 86 247 5.0 15.0 0.00 0.00 0.00 23 1009.9
20260509194204 85 292 5.0 14.0 0.00 0.00 0.00 21 1010.0
20260509193704 85 224 7.0 14.0 0.00 0.00 0.00 20 1010.1
20260509193205 84 229 5.0 12.0 0.00 0.00 0.00 20 1010.1
20260509192204 83 230 6.0 12.0 0.00 0.00 0.00 20 1010.2
20260509191704 83 155 7.0 12.0 0.00 0.00 0.00 18 1010.3
20260509191205 84 152 5.0 16.0 0.00 0.00 0.00 20 1010.3
20260509190205 84 233 3.0 14.0 0.00 0.00 0.00 21 1010.3
20260509185704 85 179 5.0 14.0 0.00 0.00 0.00 22 1010.3
20260509185204 85 304 7.0 12.0 0.00 0.00 0.00 24 1010.3
20260509184704 85 268 6.0 16.0 0.00 0.00 0.00 28 1010.4
20260509184205 85 265 7.0 16.0 0.00 0.00 0.00 24 1010.5
20260509183704 84 255 4.0 10.0 0.00 0.00 0.00 24 1010.7
20260509183204 83 250 3.0 18.0 0.00 0.00 0.00 28 1010.7
20260509182704 81 139 4.0 18.0 0.00 0.00 0.00 22 1010.8
20260509181704 83 301 4.0 14.0 0.00 0.00 0.00 27 1010.9
20260509181205 82 288 7.0 15.0 0.00 0.00 0.00 22 1011.0
20260509180704 84 263 9.0 17.0 0.00 0.00 0.00 23 1011.0
20260509180204 83 239 2.0 17.0 0.00 0.00 0.00 25 1011.1
20260509175205 84 290 4.0 20.0 0.00 0.00 0.00 22 1011.1
20260509174704 83 182 6.0 20.0 0.00 0.00 0.00 23 1011.3
20260509174205 82 232 10.0 18.0 0.00 0.00 0.00 23 1011.4
20260509173705 83 252 6.0 20.0 0.00 0.00 0.00 28 1011.4
20260509173205 82 233 10.0 20.0 0.00 0.00 0.00 22 1011.4
20260509172705 82 203 9.0 17.0 0.00 0.00 0.00 23 1011.5
20260509172204 82 239 5.0 17.0 0.00 0.00 0.00 25 1011.6
20260509171705 82 247 7.0 18.0 0.00 0.00 0.00 25 1012.3
20260509171205 82 246 6.0 18.0 0.00 0.00 0.00 24 1011.8
20260509170704 81 241 11.0 18.0 0.00 0.00 0.00 24 1011.9
20260509170205 81 238 7.0 18.0 0.00 0.00 0.00 25 1011.9
20260509165205 82 275 11.0 18.0 0.00 0.00 0.00 26 1011.9
20260509164705 81 231 8.0 24.0 0.00 0.00 0.00 26 1011.9
20260509164204 81 246 14.0 24.0 0.00 0.00 0.00 24 1012.0
20260509163705 81 218 12.0 18.0 0.00 0.00 0.00 25 1011.9
20260509163204 80 225 6.0 20.0 0.00 0.00 0.00 26 1011.9
20260509161705 79 283 8.0 17.0 0.00 0.00 0.00 31 1011.8
20260509161204 80 256 10.0 22.0 0.00 0.00 0.00 34 1011.9
20260509160705 79 263 7.0 26.0 0.00 0.00 0.00 33 1011.9
20260509160204 79 223 12.0 26.0 0.00 0.00 0.00 32 1011.9
20260509155704 78 267 12.0 18.0 0.00 0.00 0.00 33 1011.9
20260509154704 78 229 13.0 22.0 0.00 0.00 0.00 30 1011.7
20260509154204 78 230 10.0 18.0 0.00 0.00 0.00 32 1011.8
20260509153704 77 266 11.0 22.0 0.00 0.00 0.00 35 1011.9
20260509153204 76 223 10.0 22.0 0.00 0.00 0.00 36 1011.8
20260509152705 76 229 7.0 15.0 0.00 0.00 0.00 42 1011.9
20260509152205 75 253 6.0 15.0 0.00 0.00 0.00 44 1011.9
20260509151204 73 224 5.0 15.0 0.00 0.00 0.00 48 1011.9
20260509150707 73 222 7.0 15.0 0.00 0.00 0.00 46 1011.9
20260509150204 72 247 7.0 15.0 0.00 0.00 0.00 49 1011.9
20260509145704 72 227 9.0 15.0 0.00 0.00 0.00 48 1011.8
20260509145205 72 231 7.0 15.0 0.00 0.00 0.00 49 1011.7
20260509144704 71 238 7.0 15.0 0.00 0.00 0.00 49 1011.6
20260509144204 70 220 6.0 16.0 0.00 0.00 0.00 50 1011.5
20260509143704 70 232 7.0 16.0 0.00 0.00 0.00 50 1011.6